owner,sensor,date,latitude,longitude,vertical_datum,sea_water_practical_salinity,qcFlag 
DISL,ioos:station:DISL:PPTA:1,2017-07-01T00:00:00Z,30.2791,-87.5561,1.338,6.69,1111122 
DISL,ioos:station:DISL:PPTA:1,2017-07-01T00:30:00Z,30.2791,-87.5561,1.325,7.59,1111122 
DISL,ioos:station:DISL:PPTA:1,2017-07-01T01:00:00Z,30.2791,-87.5561,1.309,7.82,1111122 
DISL,ioos:station:DISL:PPTA:1,2017-07-01T01:30:00Z,30.2791,-87.5561,1.304,6.94,1111122 
DISL,ioos:station:DISL:PPTA:1,2017-07-01T02:00:00Z,30.2791,-87.5561,1.3,8.42,1111122 
DISL,ioos:station:DISL:PPTA:1,2017-07-01T02:30:00Z,30.2791,-87.5561,1.321,7.98,1111122 
DISL,ioos:station:DISL:PPTA:1,2017-07-01T03:00:00Z,30.2791,-87.5561,1.315,8.08,1111122 
DISL,ioos:station:DISL:PPTA:1,2017-07-01T03:30:00Z,30.2791,-87.5561,1.318,8.16,1111122 
DISL,ioos:station:DISL:PPTA:1,2017-07-01T04:00:00Z,30.2791,-87.5561,1.312,9.24,1111122 
DISL,ioos:station:DISL:PPTA:1,2017-07-01T04:30:00Z,30.2791,-87.5561,1.326,9.36,1111122 
DISL,ioos:station:DISL:PPTA:1,2017-07-01T05:00:00Z,30.2791,-87.5561,1.326,7.49,1111122 
DISL,ioos:station:DISL:PPTA:1,2017-07-01T05:30:00Z,30.2791,-87.5561,1.327,8.12,1111122 
DISL,ioos:station:DISL:PPTA:1,2017-07-01T06:00:00Z,30.2791,-87.5561,1.324,9.29,1111122 
DISL,ioos:station:DISL:PPTA:1,2017-07-01T06:30:00Z,30.2791,-87.5561,1.314,12.96,1111122 
DISL,ioos:station:DISL:PPTA:1,2017-07-01T07:00:00Z,30.2791,-87.5561,1.303,16.89,1111122 
DISL,ioos:station:DISL:PPTA:1,2017-07-01T07:30:00Z,30.2791,-87.5561,1.3,12.18,1111122 
DISL,ioos:station:DISL:PPTA:1,2017-07-01T08:00:00Z,30.2791,-87.5561,1.313,24.0,1111122 
DISL,ioos:station:DISL:PPTA:1,2017-07-01T08:30:00Z,30.2791,-87.5561,1.308,18.94,1111122 
DISL,ioos:station:DISL:PPTA:1,2017-07-01T09:00:00Z,30.2791,-87.5561,1.321,18.1,1111122 
DISL,ioos:station:DISL:PPTA:1,2017-07-01T09:30:00Z,30.2791,-87.5561,1.339,19.54,1111122 
DISL,ioos:station:DISL:PPTA:1,2017-07-01T10:00:00Z,30.2791,-87.5561,1.329,11.37,1111122 
DISL,ioos:station:DISL:PPTA:1,2017-07-01T10:30:00Z,30.2791,-87.5561,1.347,15.33,1111122 
DISL,ioos:station:DISL:PPTA:1,2017-07-01T11:00:00Z,30.2791,-87.5561,1.349,10.66,1111122 
DISL,ioos:station:DISL:PPTA:1,2017-07-01T11:30:00Z,30.2791,-87.5561,1.358,15.38,1111122 
DISL,ioos:station:DISL:PPTA:1,2017-07-01T12:00:00Z,30.2791,-87.5561,1.352,9.84,1111122 
DISL,ioos:station:DISL:PPTA:1,2017-07-01T12:30:00Z,30.2791,-87.5561,1.359,11.8,1111122 
DISL,ioos:station:DISL:PPTA:1,2017-07-01T13:00:00Z,30.2791,-87.5561,1.363,9.25,1111122 
DISL,ioos:station:DISL:PPTA:1,2017-07-01T13:30:00Z,30.2791,-87.5561,1.35,7.76,1111122 
DISL,ioos:station:DISL:PPTA:1,2017-07-01T14:00:00Z,30.2791,-87.5561,1.362,7.61,1111122 
DISL,ioos:station:DISL:PPTA:1,2017-07-01T14:30:00Z,30.2791,-87.5561,1.366,8.77,1111122 
DISL,ioos:station:DISL:PPTA:1,2017-07-01T15:00:00Z,30.2791,-87.5561,1.363,7.79,1111122 
DISL,ioos:station:DISL:PPTA:1,2017-07-01T15:30:00Z,30.2791,-87.5561,1.354,11.37,1111122 
DISL,ioos:station:DISL:PPTA:1,2017-07-01T16:00:00Z,30.2791,-87.5561,1.346,10.21,1111122 
DISL,ioos:station:DISL:PPTA:1,2017-07-01T16:30:00Z,30.2791,-87.5561,1.323,9.06,1111122 
DISL,ioos:station:DISL:PPTA:1,2017-07-01T17:00:00Z,30.2791,-87.5561,1.33,8.94,1111122 
DISL,ioos:station:DISL:PPTA:1,2017-07-01T17:30:00Z,30.2791,-87.5561,1.324,8.42,1111122 
DISL,ioos:station:DISL:PPTA:1,2017-07-01T18:00:00Z,30.2791,-87.5561,1.345,8.79,1111122 
DISL,ioos:station:DISL:PPTA:1,2017-07-01T18:30:00Z,30.2791,-87.5561,1.317,8.36,1111122 
DISL,ioos:station:DISL:PPTA:1,2017-07-01T19:00:00Z,30.2791,-87.5561,1.323,6.68,1111122 
DISL,ioos:station:DISL:PPTA:1,2017-07-01T19:30:00Z,30.2791,-87.5561,1.333,8.22,1111122 
DISL,ioos:station:DISL:PPTA:1,2017-07-01T20:00:00Z,30.2791,-87.5561,1.303,8.41,1111122 
DISL,ioos:station:DISL:PPTA:1,2017-07-01T20:30:00Z,30.2791,-87.5561,1.313,8.7,1111122 
DISL,ioos:station:DISL:PPTA:1,2017-07-01T21:00:00Z,30.2791,-87.5561,1.298,7.46,1111122 
DISL,ioos:station:DISL:PPTA:1,2017-07-01T21:30:00Z,30.2791,-87.5561,1.296,8.04,1111122 
DISL,ioos:station:DISL:PPTA:1,2017-07-01T22:00:00Z,30.2791,-87.5561,1.28,8.84,1111122 
DISL,ioos:station:DISL:PPTA:1,2017-07-01T22:30:00Z,30.2791,-87.5561,1.281,7.95,1111122 
DISL,ioos:station:DISL:PPTA:1,2017-07-01T23:00:00Z,30.2791,-87.5561,1.269,7.89,1111122 
DISL,ioos:station:DISL:PPTA:1,2017-07-01T23:30:00Z,30.2791,-87.5561,1.266,7.98,1111122 
DISL,ioos:station:DISL:PPTA:1,2017-07-02T00:00:00Z,30.2791,-87.5561,1.264,7.97,1111122 
DISL,ioos:station:DISL:PPTA:1,2017-07-02T00:30:00Z,30.2791,-87.5561,1.263,8.46,1111122 
DISL,ioos:station:DISL:PPTA:1,2017-07-02T01:00:00Z,30.2791,-87.5561,1.259,8.26,1111122 
DISL,ioos:station:DISL:PPTA:1,2017-07-02T01:30:00Z,30.2791,-87.5561,1.261,9.32,1111122 
DISL,ioos:station:DISL:PPTA:1,2017-07-02T02:00:00Z,30.2791,-87.5561,1.265,8.72,1111122 
DISL,ioos:station:DISL:PPTA:1,2017-07-02T02:30:00Z,30.2791,-87.5561,1.256,8.92,1111122 
DISL,ioos:station:DISL:PPTA:1,2017-07-02T03:00:00Z,30.2791,-87.5561,1.268,7.39,1111122 
DISL,ioos:station:DISL:PPTA:1,2017-07-02T03:30:00Z,30.2791,-87.5561,1.255,8.66,1111122 
DISL,ioos:station:DISL:PPTA:1,2017-07-02T04:00:00Z,30.2791,-87.5561,1.26,10.23,1111122 
DISL,ioos:station:DISL:PPTA:1,2017-07-02T04:30:00Z,30.2791,-87.5561,1.258,7.23,1111122 
DISL,ioos:station:DISL:PPTA:1,2017-07-02T05:00:00Z,30.2791,-87.5561,1.251,9.42,1111122 
DISL,ioos:station:DISL:PPTA:1,2017-07-02T05:30:00Z,30.2791,-87.5561,1.275,9.39,1111122 
DISL,ioos:station:DISL:PPTA:1,2017-07-02T06:00:00Z,30.2791,-87.5561,1.276,8.5,1111122 
DISL,ioos:station:DISL:PPTA:1,2017-07-02T06:30:00Z,30.2791,-87.5561,1.3,5.54,1111122 
DISL,ioos:station:DISL:PPTA:1,2017-07-02T07:00:00Z,30.2791,-87.5561,1.311,5.75,1111122 
DISL,ioos:station:DISL:PPTA:1,2017-07-02T07:30:00Z,30.2791,-87.5561,1.314,11.82,1111122 
DISL,ioos:station:DISL:PPTA:1,2017-07-02T08:00:00Z,30.2791,-87.5561,1.314,10.61,1111122 
DISL,ioos:station:DISL:PPTA:1,2017-07-02T08:30:00Z,30.2791,-87.5561,1.299,30.99,1111122 
DISL,ioos:station:DISL:PPTA:1,2017-07-02T09:00:00Z,30.2791,-87.5561,1.293,31.99,1111122 
DISL,ioos:station:DISL:PPTA:1,2017-07-02T09:30:00Z,30.2791,-87.5561,1.286,32.36,1111122 
DISL,ioos:station:DISL:PPTA:1,2017-07-02T10:00:00Z,30.2791,-87.5561,1.291,32.5,1111122 
DISL,ioos:station:DISL:PPTA:1,2017-07-02T10:30:00Z,30.2791,-87.5561,1.311,32.6,1111122 
DISL,ioos:station:DISL:PPTA:1,2017-07-02T11:00:00Z,30.2791,-87.5561,1.321,32.69,1111122 
DISL,ioos:station:DISL:PPTA:1,2017-07-02T11:30:00Z,30.2791,-87.5561,1.323,32.35,1111122 
DISL,ioos:station:DISL:PPTA:1,2017-07-02T12:00:00Z,30.2791,-87.5561,1.343,32.42,1111122 
DISL,ioos:station:DISL:PPTA:1,2017-07-02T12:30:00Z,30.2791,-87.5561,1.335,32.13,1111122 
DISL,ioos:station:DISL:PPTA:1,2017-07-02T13:00:00Z,30.2791,-87.5561,1.34,32.08,1111122 
DISL,ioos:station:DISL:PPTA:1,2017-07-02T13:30:00Z,30.2791,-87.5561,1.343,28.57,1111122 
DISL,ioos:station:DISL:PPTA:1,2017-07-02T14:00:00Z,30.2791,-87.5561,1.334,32.14,1111122 
DISL,ioos:station:DISL:PPTA:1,2017-07-02T14:30:00Z,30.2791,-87.5561,1.307,18.67,1111122 
DISL,ioos:station:DISL:PPTA:1,2017-07-02T15:00:00Z,30.2791,-87.5561,1.314,18.82,1111122 
DISL,ioos:station:DISL:PPTA:1,2017-07-02T15:30:00Z,30.2791,-87.5561,1.296,25.07,1111122 
DISL,ioos:station:DISL:PPTA:1,2017-07-02T16:00:00Z,30.2791,-87.5561,1.292,23.0,1111122 
DISL,ioos:station:DISL:PPTA:1,2017-07-02T16:30:00Z,30.2791,-87.5561,1.312,19.0,1111122 
DISL,ioos:station:DISL:PPTA:1,2017-07-02T17:00:00Z,30.2791,-87.5561,1.307,18.43,1111122 
DISL,ioos:station:DISL:PPTA:1,2017-07-02T17:30:00Z,30.2791,-87.5561,1.312,17.55,1111122 
DISL,ioos:station:DISL:PPTA:1,2017-07-02T18:00:00Z,30.2791,-87.5561,1.292,15.24,1111122 
DISL,ioos:station:DISL:PPTA:1,2017-07-02T18:30:00Z,30.2791,-87.5561,1.285,15.34,1111122 
DISL,ioos:station:DISL:PPTA:1,2017-07-02T19:00:00Z,30.2791,-87.5561,1.272,14.62,1111122 
DISL,ioos:station:DISL:PPTA:1,2017-07-02T19:30:00Z,30.2791,-87.5561,1.27,15.3,1111122 
DISL,ioos:station:DISL:PPTA:1,2017-07-02T20:00:00Z,30.2791,-87.5561,1.261,15.83,1111122 
DISL,ioos:station:DISL:PPTA:1,2017-07-02T20:30:00Z,30.2791,-87.5561,1.251,15.01,1111122 
DISL,ioos:station:DISL:PPTA:1,2017-07-02T21:00:00Z,30.2791,-87.5561,1.244,11.51,1111122 
DISL,ioos:station:DISL:PPTA:1,2017-07-02T21:30:00Z,30.2791,-87.5561,1.243,19.03,1111122 
DISL,ioos:station:DISL:PPTA:1,2017-07-02T22:00:00Z,30.2791,-87.5561,1.237,10.72,1111122 
DISL,ioos:station:DISL:PPTA:1,2017-07-02T22:30:00Z,30.2791,-87.5561,1.232,12.69,1111122 
DISL,ioos:station:DISL:PPTA:1,2017-07-02T23:00:00Z,30.2791,-87.5561,1.237,14.89,1111122 
DISL,ioos:station:DISL:PPTA:1,2017-07-02T23:30:00Z,30.2791,-87.5561,1.247,9.29,1111122 
DISL,ioos:station:DISL:PPTA:1,2017-07-03T00:00:00Z,30.2791,-87.5561,1.233,14.4,1111122 
DISL,ioos:station:DISL:PPTA:1,2017-07-03T00:30:00Z,30.2791,-87.5561,1.243,14.12,1111122 
DISL,ioos:station:DISL:PPTA:1,2017-07-03T01:00:00Z,30.2791,-87.5561,1.232,10.66,1111122 
DISL,ioos:station:DISL:PPTA:1,2017-07-03T01:30:00Z,30.2791,-87.5561,1.237,11.38,1111122 
DISL,ioos:station:DISL:PPTA:1,2017-07-03T02:00:00Z,30.2791,-87.5561,1.231,12.23,1111122 
DISL,ioos:station:DISL:PPTA:1,2017-07-03T02:30:00Z,30.2791,-87.5561,1.229,12.41,1111122 
DISL,ioos:station:DISL:PPTA:1,2017-07-03T03:00:00Z,30.2791,-87.5561,1.238,8.74,1111122 
DISL,ioos:station:DISL:PPTA:1,2017-07-03T03:30:00Z,30.2791,-87.5561,1.229,7.12,1111122 
DISL,ioos:station:DISL:PPTA:1,2017-07-03T04:00:00Z,30.2791,-87.5561,1.243,9.28,1111122 
DISL,ioos:station:DISL:PPTA:1,2017-07-03T04:30:00Z,30.2791,-87.5561,1.244,8.46,1111122 
DISL,ioos:station:DISL:PPTA:1,2017-07-03T05:00:00Z,30.2791,-87.5561,1.231,7.67,1111122 
DISL,ioos:station:DISL:PPTA:1,2017-07-03T05:30:00Z,30.2791,-87.5561,1.244,9.06,1111122 
DISL,ioos:station:DISL:PPTA:1,2017-07-03T06:00:00Z,30.2791,-87.5561,1.259,10.56,1111122 
DISL,ioos:station:DISL:PPTA:1,2017-07-03T06:30:00Z,30.2791,-87.5561,1.277,14.22,1111122 
DISL,ioos:station:DISL:PPTA:1,2017-07-03T07:00:00Z,30.2791,-87.5561,1.263,23.23,1111122 
DISL,ioos:station:DISL:PPTA:1,2017-07-03T07:30:00Z,30.2791,-87.5561,1.264,34.87,1111122 
DISL,ioos:station:DISL:PPTA:1,2017-07-03T08:00:00Z,30.2791,-87.5561,1.294,35.06,1111122 
DISL,ioos:station:DISL:PPTA:1,2017-07-03T08:30:00Z,30.2791,-87.5561,1.297,35.27,1111122 
DISL,ioos:station:DISL:PPTA:1,2017-07-03T09:00:00Z,30.2791,-87.5561,1.308,35.3,1111122 
DISL,ioos:station:DISL:PPTA:1,2017-07-03T09:30:00Z,30.2791,-87.5561,1.322,35.03,1111122 
DISL,ioos:station:DISL:PPTA:1,2017-07-03T10:00:00Z,30.2791,-87.5561,1.308,34.59,1111122 
DISL,ioos:station:DISL:PPTA:1,2017-07-03T10:30:00Z,30.2791,-87.5561,1.337,35.04,1111122 
DISL,ioos:station:DISL:PPTA:1,2017-07-03T11:00:00Z,30.2791,-87.5561,1.328,33.26,1111122 
DISL,ioos:station:DISL:PPTA:1,2017-07-03T11:30:00Z,30.2791,-87.5561,1.357,33.2,1111122 
DISL,ioos:station:DISL:PPTA:1,2017-07-03T12:00:00Z,30.2791,-87.5561,1.356,33.16,1111122 
DISL,ioos:station:DISL:PPTA:1,2017-07-03T12:30:00Z,30.2791,-87.5561,1.364,33.58,1111122 
DISL,ioos:station:DISL:PPTA:1,2017-07-03T13:00:00Z,30.2791,-87.5561,1.369,34.09,1111122 
DISL,ioos:station:DISL:PPTA:1,2017-07-03T13:30:00Z,30.2791,-87.5561,1.352,33.28,1111122 
DISL,ioos:station:DISL:PPTA:1,2017-07-03T14:00:00Z,30.2791,-87.5561,1.347,27.03,1111122 
DISL,ioos:station:DISL:PPTA:1,2017-07-03T14:30:00Z,30.2791,-87.5561,1.34,25.87,1111122 
DISL,ioos:station:DISL:PPTA:1,2017-07-03T15:00:00Z,30.2791,-87.5561,1.335,31.17,1111122 
DISL,ioos:station:DISL:PPTA:1,2017-07-03T15:30:00Z,30.2791,-87.5561,1.324,28.45,1111122 
DISL,ioos:station:DISL:PPTA:1,2017-07-03T16:00:00Z,30.2791,-87.5561,1.317,21.35,1111122 
DISL,ioos:station:DISL:PPTA:1,2017-07-03T16:30:00Z,30.2791,-87.5561,1.33,13.94,1111122 
DISL,ioos:station:DISL:PPTA:1,2017-07-03T17:00:00Z,30.2791,-87.5561,1.312,22.23,1111122 
DISL,ioos:station:DISL:PPTA:1,2017-07-03T17:30:00Z,30.2791,-87.5561,1.306,22.58,1111122 
DISL,ioos:station:DISL:PPTA:1,2017-07-03T18:00:00Z,30.2791,-87.5561,1.306,17.23,1111122 
DISL,ioos:station:DISL:PPTA:1,2017-07-03T18:30:00Z,30.2791,-87.5561,1.276,20.51,1111122 
DISL,ioos:station:DISL:PPTA:1,2017-07-03T19:00:00Z,30.2791,-87.5561,1.28,17.18,1111122 
DISL,ioos:station:DISL:PPTA:1,2017-07-03T19:30:00Z,30.2791,-87.5561,1.281,17.17,1111122 
DISL,ioos:station:DISL:PPTA:1,2017-07-03T20:00:00Z,30.2791,-87.5561,1.243,15.72,1111122 
DISL,ioos:station:DISL:PPTA:1,2017-07-03T20:30:00Z,30.2791,-87.5561,1.242,16.28,1111122 
DISL,ioos:station:DISL:PPTA:1,2017-07-03T21:00:00Z,30.2791,-87.5561,1.238,14.65,1111122 
DISL,ioos:station:DISL:PPTA:1,2017-07-03T21:30:00Z,30.2791,-87.5561,1.235,14.82,1111122 
DISL,ioos:station:DISL:PPTA:1,2017-07-03T22:00:00Z,30.2791,-87.5561,1.202,16.77,1111122 
DISL,ioos:station:DISL:PPTA:1,2017-07-03T22:30:00Z,30.2791,-87.5561,1.204,14.43,1111122 
DISL,ioos:station:DISL:PPTA:1,2017-07-03T23:00:00Z,30.2791,-87.5561,1.211,9.55,1111122 
DISL,ioos:station:DISL:PPTA:1,2017-07-03T23:30:00Z,30.2791,-87.5561,1.189,13.93,1111122 
DISL,ioos:station:DISL:PPTA:1,2017-07-04T00:00:00Z,30.2791,-87.5561,1.205,10.69,1111122 
DISL,ioos:station:DISL:PPTA:1,2017-07-04T00:30:00Z,30.2791,-87.5561,1.212,9.34,1111122 
DISL,ioos:station:DISL:PPTA:1,2017-07-04T01:00:00Z,30.2791,-87.5561,1.194,12.62,1111122 
DISL,ioos:station:DISL:PPTA:1,2017-07-04T01:30:00Z,30.2791,-87.5561,1.216,7.74,1111122 
DISL,ioos:station:DISL:PPTA:1,2017-07-04T02:00:00Z,30.2791,-87.5561,1.211,12.6,1111122 
DISL,ioos:station:DISL:PPTA:1,2017-07-04T02:30:00Z,30.2791,-87.5561,1.219,8.17,1111122 
DISL,ioos:station:DISL:PPTA:1,2017-07-04T03:00:00Z,30.2791,-87.5561,1.204,12.02,1111122 
DISL,ioos:station:DISL:PPTA:1,2017-07-04T03:30:00Z,30.2791,-87.5561,1.208,10.63,1111122 
DISL,ioos:station:DISL:PPTA:1,2017-07-04T04:00:00Z,30.2791,-87.5561,1.216,10.12,1111122 
DISL,ioos:station:DISL:PPTA:1,2017-07-04T04:30:00Z,30.2791,-87.5561,1.227,10.89,1111122 
DISL,ioos:station:DISL:PPTA:1,2017-07-04T05:00:00Z,30.2791,-87.5561,1.223,11.95,1111122 
DISL,ioos:station:DISL:PPTA:1,2017-07-04T05:30:00Z,30.2791,-87.5561,1.232,20.4,1111122 
DISL,ioos:station:DISL:PPTA:1,2017-07-04T06:00:00Z,30.2791,-87.5561,1.222,32.89,1111122 
DISL,ioos:station:DISL:PPTA:1,2017-07-04T06:30:00Z,30.2791,-87.5561,1.239,33.6,1111122 
DISL,ioos:station:DISL:PPTA:1,2017-07-04T07:00:00Z,30.2791,-87.5561,1.237,34.1,1111122 
DISL,ioos:station:DISL:PPTA:1,2017-07-04T07:30:00Z,30.2791,-87.5561,1.271,34.54,1111122 
DISL,ioos:station:DISL:PPTA:1,2017-07-04T08:00:00Z,30.2791,-87.5561,1.286,33.3,1111122 
DISL,ioos:station:DISL:PPTA:1,2017-07-04T08:30:00Z,30.2791,-87.5561,1.3,33.01,1111122 
DISL,ioos:station:DISL:PPTA:1,2017-07-04T09:00:00Z,30.2791,-87.5561,1.308,33.8,1111122 
DISL,ioos:station:DISL:PPTA:1,2017-07-04T09:30:00Z,30.2791,-87.5561,1.323,33.95,1111122 
DISL,ioos:station:DISL:PPTA:1,2017-07-04T10:00:00Z,30.2791,-87.5561,1.334,32.72,1111122 
DISL,ioos:station:DISL:PPTA:1,2017-07-04T10:30:00Z,30.2791,-87.5561,1.331,33.66,1111122 
DISL,ioos:station:DISL:PPTA:1,2017-07-04T11:00:00Z,30.2791,-87.5561,1.352,33.87,1111122 
DISL,ioos:station:DISL:PPTA:1,2017-07-04T11:30:00Z,30.2791,-87.5561,1.363,34.22,1111122 
DISL,ioos:station:DISL:PPTA:1,2017-07-04T12:00:00Z,30.2791,-87.5561,1.359,33.93,1111122 
DISL,ioos:station:DISL:PPTA:1,2017-07-04T12:30:00Z,30.2791,-87.5561,1.367,35.03,1111122 
DISL,ioos:station:DISL:PPTA:1,2017-07-04T13:00:00Z,30.2791,-87.5561,1.379,35.09,1111122 
DISL,ioos:station:DISL:PPTA:1,2017-07-04T13:30:00Z,30.2791,-87.5561,1.384,35.48,1111122 
DISL,ioos:station:DISL:PPTA:1,2017-07-04T14:00:00Z,30.2791,-87.5561,1.376,34.81,1111122 
DISL,ioos:station:DISL:PPTA:1,2017-07-04T14:30:00Z,30.2791,-87.5561,1.374,35.42,1111122 
DISL,ioos:station:DISL:PPTA:1,2017-07-04T15:00:00Z,30.2791,-87.5561,1.356,34.45,1111122 
DISL,ioos:station:DISL:PPTA:1,2017-07-04T15:30:00Z,30.2791,-87.5561,1.351,30.17,1111122 
DISL,ioos:station:DISL:PPTA:1,2017-07-04T16:00:00Z,30.2791,-87.5561,1.325,25.99,1111122 
DISL,ioos:station:DISL:PPTA:1,2017-07-04T16:30:00Z,30.2791,-87.5561,1.324,23.89,1111122 
DISL,ioos:station:DISL:PPTA:1,2017-07-04T17:00:00Z,30.2791,-87.5561,1.316,21.05,1111122 
DISL,ioos:station:DISL:PPTA:1,2017-07-04T17:30:00Z,30.2791,-87.5561,1.324,26.73,1111122 
DISL,ioos:station:DISL:PPTA:1,2017-07-04T18:00:00Z,30.2791,-87.5561,1.315,18.24,1111122 
DISL,ioos:station:DISL:PPTA:1,2017-07-04T18:30:00Z,30.2791,-87.5561,1.296,22.24,1111122 
DISL,ioos:station:DISL:PPTA:1,2017-07-04T19:00:00Z,30.2791,-87.5561,1.268,21.63,1111122 
DISL,ioos:station:DISL:PPTA:1,2017-07-04T19:30:00Z,30.2791,-87.5561,1.243,19.52,1111122 
DISL,ioos:station:DISL:PPTA:1,2017-07-04T20:00:00Z,30.2791,-87.5561,1.239,16.62,1111122 
DISL,ioos:station:DISL:PPTA:1,2017-07-04T20:30:00Z,30.2791,-87.5561,1.247,20.19,1111122 
DISL,ioos:station:DISL:PPTA:1,2017-07-04T21:00:00Z,30.2791,-87.5561,1.232,16.72,1111122 
DISL,ioos:station:DISL:PPTA:1,2017-07-04T21:30:00Z,30.2791,-87.5561,1.212,15.63,1111122 
DISL,ioos:station:DISL:PPTA:1,2017-07-04T22:00:00Z,30.2791,-87.5561,1.213,13.24,1111122 
DISL,ioos:station:DISL:PPTA:1,2017-07-04T22:30:00Z,30.2791,-87.5561,1.214,15.13,1111122 
DISL,ioos:station:DISL:PPTA:1,2017-07-04T23:00:00Z,30.2791,-87.5561,1.215,12.7,1111122 
DISL,ioos:station:DISL:PPTA:1,2017-07-04T23:30:00Z,30.2791,-87.5561,1.205,11.26,1111122 
DISL,ioos:station:DISL:PPTA:1,2017-07-05T00:00:00Z,30.2791,-87.5561,1.202,10.96,1111122 
DISL,ioos:station:DISL:PPTA:1,2017-07-05T00:30:00Z,30.2791,-87.5561,1.207,8.66,1111122 
DISL,ioos:station:DISL:PPTA:1,2017-07-05T01:00:00Z,30.2791,-87.5561,1.193,21.28,1111122 
DISL,ioos:station:DISL:PPTA:1,2017-07-05T01:30:00Z,30.2791,-87.5561,1.199,17.23,1111122 
DISL,ioos:station:DISL:PPTA:1,2017-07-05T02:00:00Z,30.2791,-87.5561,1.188,12.7,1111122 
DISL,ioos:station:DISL:PPTA:1,2017-07-05T02:30:00Z,30.2791,-87.5561,1.213,16.1,1111122 
DISL,ioos:station:DISL:PPTA:1,2017-07-05T03:00:00Z,30.2791,-87.5561,1.215,12.34,1111122 
DISL,ioos:station:DISL:PPTA:1,2017-07-05T03:30:00Z,30.2791,-87.5561,1.212,11.24,1111122 
DISL,ioos:station:DISL:PPTA:1,2017-07-05T04:00:00Z,30.2791,-87.5561,1.202,12.21,1111122 
DISL,ioos:station:DISL:PPTA:1,2017-07-05T04:30:00Z,30.2791,-87.5561,1.213,12.21,1111122 
DISL,ioos:station:DISL:PPTA:1,2017-07-05T05:00:00Z,30.2791,-87.5561,1.221,13.69,1111122 
DISL,ioos:station:DISL:PPTA:1,2017-07-05T05:30:00Z,30.2791,-87.5561,1.215,23.71,1111122 
DISL,ioos:station:DISL:PPTA:1,2017-07-05T06:00:00Z,30.2791,-87.5561,1.213,34.09,1111122 
DISL,ioos:station:DISL:PPTA:1,2017-07-05T06:30:00Z,30.2791,-87.5561,1.208,33.41,1111122 
DISL,ioos:station:DISL:PPTA:1,2017-07-05T07:00:00Z,30.2791,-87.5561,1.241,34.43,1111122 
DISL,ioos:station:DISL:PPTA:1,2017-07-05T07:30:00Z,30.2791,-87.5561,1.255,33.84,1111122 
DISL,ioos:station:DISL:PPTA:1,2017-07-05T08:00:00Z,30.2791,-87.5561,1.288,34.61,1111122 
DISL,ioos:station:DISL:PPTA:1,2017-07-05T08:30:00Z,30.2791,-87.5561,1.302,33.45,1111122 
DISL,ioos:station:DISL:PPTA:1,2017-07-05T09:00:00Z,30.2791,-87.5561,1.313,32.11,1111122 
DISL,ioos:station:DISL:PPTA:1,2017-07-05T09:30:00Z,30.2791,-87.5561,1.323,32.1,1111122 
DISL,ioos:station:DISL:PPTA:1,2017-07-05T10:00:00Z,30.2791,-87.5561,1.328,31.71,1111122 
DISL,ioos:station:DISL:PPTA:1,2017-07-05T10:30:00Z,30.2791,-87.5561,1.344,31.24,1111122 
DISL,ioos:station:DISL:PPTA:1,2017-07-05T11:00:00Z,30.2791,-87.5561,1.365,30.65,1111122 
DISL,ioos:station:DISL:PPTA:1,2017-07-05T11:30:00Z,30.2791,-87.5561,1.379,31.46,1111122 
DISL,ioos:station:DISL:PPTA:1,2017-07-05T12:00:00Z,30.2791,-87.5561,1.389,30.92,1111122 
DISL,ioos:station:DISL:PPTA:1,2017-07-05T12:30:00Z,30.2791,-87.5561,1.398,30.7,1111122 
DISL,ioos:station:DISL:PPTA:1,2017-07-05T13:00:00Z,30.2791,-87.5561,1.411,31.02,1111122 
DISL,ioos:station:DISL:PPTA:1,2017-07-05T13:30:00Z,30.2791,-87.5561,1.418,31.47,1111122 
DISL,ioos:station:DISL:PPTA:1,2017-07-05T14:00:00Z,30.2791,-87.5561,1.401,31.12,1111122 
DISL,ioos:station:DISL:PPTA:1,2017-07-05T14:30:00Z,30.2791,-87.5561,1.397,30.78,1111122 
DISL,ioos:station:DISL:PPTA:1,2017-07-05T15:00:00Z,30.2791,-87.5561,1.375,31.93,1111122 
DISL,ioos:station:DISL:PPTA:1,2017-07-05T15:30:00Z,30.2791,-87.5561,1.368,31.79,1111122 
DISL,ioos:station:DISL:PPTA:1,2017-07-05T16:00:00Z,30.2791,-87.5561,1.358,31.66,1111122 
DISL,ioos:station:DISL:PPTA:1,2017-07-05T16:30:00Z,30.2791,-87.5561,1.347,28.28,1111122 
DISL,ioos:station:DISL:PPTA:1,2017-07-05T17:00:00Z,30.2791,-87.5561,1.339,29.03,1111122 
DISL,ioos:station:DISL:PPTA:1,2017-07-05T17:30:00Z,30.2791,-87.5561,1.336,30.14,1111122 
DISL,ioos:station:DISL:PPTA:1,2017-07-05T18:00:00Z,30.2791,-87.5561,1.319,24.71,1111122 
DISL,ioos:station:DISL:PPTA:1,2017-07-05T18:30:00Z,30.2791,-87.5561,1.311,24.92,1111122 
DISL,ioos:station:DISL:PPTA:1,2017-07-05T19:00:00Z,30.2791,-87.5561,1.295,19.76,1111122 
DISL,ioos:station:DISL:PPTA:1,2017-07-05T19:30:00Z,30.2791,-87.5561,1.274,18.81,1111122 
DISL,ioos:station:DISL:PPTA:1,2017-07-05T20:00:00Z,30.2791,-87.5561,1.267,17.99,1111122 
DISL,ioos:station:DISL:PPTA:1,2017-07-05T20:30:00Z,30.2791,-87.5561,1.24,17.41,1111122 
DISL,ioos:station:DISL:PPTA:1,2017-07-05T21:00:00Z,30.2791,-87.5561,1.224,17.56,1111122 
DISL,ioos:station:DISL:PPTA:1,2017-07-05T21:30:00Z,30.2791,-87.5561,1.223,16.06,1111122 
DISL,ioos:station:DISL:PPTA:1,2017-07-05T22:00:00Z,30.2791,-87.5561,1.221,18.28,1111122 
DISL,ioos:station:DISL:PPTA:1,2017-07-05T22:30:00Z,30.2791,-87.5561,1.227,14.5,1111122 
DISL,ioos:station:DISL:PPTA:1,2017-07-05T23:00:00Z,30.2791,-87.5561,1.215,14.48,1111122 
DISL,ioos:station:DISL:PPTA:1,2017-07-05T23:30:00Z,30.2791,-87.5561,1.215,12.56,1111122 
DISL,ioos:station:DISL:PPTA:1,2017-07-06T00:00:00Z,30.2791,-87.5561,1.197,12.69,1111122 
DISL,ioos:station:DISL:PPTA:1,2017-07-06T00:30:00Z,30.2791,-87.5561,1.199,12.21,1111122 
DISL,ioos:station:DISL:PPTA:1,2017-07-06T01:00:00Z,30.2791,-87.5561,1.199,12.48,1111122 
DISL,ioos:station:DISL:PPTA:1,2017-07-06T01:30:00Z,30.2791,-87.5561,1.201,11.27,1111122 
DISL,ioos:station:DISL:PPTA:1,2017-07-06T02:00:00Z,30.2791,-87.5561,1.207,9.75,1111122 
DISL,ioos:station:DISL:PPTA:1,2017-07-06T02:30:00Z,30.2791,-87.5561,1.204,13.89,1111122 
DISL,ioos:station:DISL:PPTA:1,2017-07-06T03:00:00Z,30.2791,-87.5561,1.211,12.09,1111122 
DISL,ioos:station:DISL:PPTA:1,2017-07-06T03:30:00Z,30.2791,-87.5561,1.199,12.84,1111122 
DISL,ioos:station:DISL:PPTA:1,2017-07-06T04:00:00Z,30.2791,-87.5561,1.215,13.97,1111122 
DISL,ioos:station:DISL:PPTA:1,2017-07-06T04:30:00Z,30.2791,-87.5561,1.213,11.26,1111122 
DISL,ioos:station:DISL:PPTA:1,2017-07-06T05:00:00Z,30.2791,-87.5561,1.214,14.07,1111122 
DISL,ioos:station:DISL:PPTA:1,2017-07-06T05:30:00Z,30.2791,-87.5561,1.208,26.24,1111122 
DISL,ioos:station:DISL:PPTA:1,2017-07-06T06:00:00Z,30.2791,-87.5561,1.198,29.76,1111122 
DISL,ioos:station:DISL:PPTA:1,2017-07-06T06:30:00Z,30.2791,-87.5561,1.207,34.83,1111122 
DISL,ioos:station:DISL:PPTA:1,2017-07-06T07:00:00Z,30.2791,-87.5561,1.24,34.38,1111122 
DISL,ioos:station:DISL:PPTA:1,2017-07-06T07:30:00Z,30.2791,-87.5561,1.242,35.64,1111122 
DISL,ioos:station:DISL:PPTA:1,2017-07-06T08:00:00Z,30.2791,-87.5561,1.246,34.59,1111122 
DISL,ioos:station:DISL:PPTA:1,2017-07-06T08:30:00Z,30.2791,-87.5561,1.278,32.96,1111122 
DISL,ioos:station:DISL:PPTA:1,2017-07-06T09:00:00Z,30.2791,-87.5561,1.302,31.61,1111122 
DISL,ioos:station:DISL:PPTA:1,2017-07-06T09:30:00Z,30.2791,-87.5561,1.324,31.82,1111122 
DISL,ioos:station:DISL:PPTA:1,2017-07-06T10:00:00Z,30.2791,-87.5561,1.333,31.0,1111122 
DISL,ioos:station:DISL:PPTA:1,2017-07-06T10:30:00Z,30.2791,-87.5561,1.366,28.77,1111122 
DISL,ioos:station:DISL:PPTA:1,2017-07-06T11:00:00Z,30.2791,-87.5561,1.372,28.84,1111122 
DISL,ioos:station:DISL:PPTA:1,2017-07-06T11:30:00Z,30.2791,-87.5561,1.391,31.62,1111122 
DISL,ioos:station:DISL:PPTA:1,2017-07-06T12:00:00Z,30.2791,-87.5561,1.403,30.87,1111122 
DISL,ioos:station:DISL:PPTA:1,2017-07-06T12:30:00Z,30.2791,-87.5561,1.407,31.32,1111122 
DISL,ioos:station:DISL:PPTA:1,2017-07-06T13:00:00Z,30.2791,-87.5561,1.41,30.52,1111122 
DISL,ioos:station:DISL:PPTA:1,2017-07-06T13:30:00Z,30.2791,-87.5561,1.399,30.24,1111122 
DISL,ioos:station:DISL:PPTA:1,2017-07-06T14:00:00Z,30.2791,-87.5561,1.412,29.54,1111122 